Burbank, CA

7:44 PM PDT on May 27, 2017 (GMT -0700)
Burbank-Glendale-Pasadena

Weather History for KBUR - February, 2014

Change the Weather History Date:

Tuesday, February 25, 2014

  Actual Average Record
Temperature  
Mean Temperature 60 °F 57 °F  
Max Temperature 70 °F 69 °F 88 °F (1954)
Min Temperature 50 °F 45 °F 29 °F (1977)
Degree Days  
Heating Degree Days 5 8  
Month to date heating degree days 95 234  
Since 1 July heating degree days 460 1117  
Cooling Degree Days 0 0  
Month to date cooling degree days 23 0  
Year to date cooling degree days 60 2  
Growing Degree Days 10 (Base 50)    
Moisture  
Dew Point 48 °F    
Average Humidity 63    
Maximum Humidity 86    
Minimum Humidity 40    
Precipitation  
Precipitation 0.00 in 0.16 in 2.33 in (1969)
Month to date precipitation 0.07 4.04  
Year to date precipitation 0.07 7.57  
Since 1 July precipitation 0.50  
Sea Level Pressure  
Sea Level Pressure 29.98 in    
Wind  
Wind Speed 4 mph (South)    
Max Wind Speed 14 mph    
Max Gust Speed 23 mph    
Visibility 7 miles    
Events      
T = Trace of Precipitation, MM = Missing Value Source: NWS Daily Summary

Daily Weather History Graph

Daily Weather History Graph

Search for Another Location

Airport or City:

Trip Planner

Search our weather history database for the weather conditions in past years. The results will help you decide how hot, cold, wet, or windy it might be!

Date:

Astronomy

Feb. 25, 2014 Rise Set
Actual Time 6:27 AM PST 5:46 PM PST
Civil Twilight 6:01 AM PST 6:11 PM PST
Nautical Twilight 5:32 AM PST 6:40 PM PST
Astronomical Twilight 5:03 AM PST 7:09 PM PST
Moon 3:18 AM PST (2/25) 2:04 PM PST (2/25)
Length of Visible Light 12h 09m
Length of Day
11h 19m
Waning Crescent, 17% of the Moon is Illuminated
Feb 25
Waning Crescent
Mar 1
New
Mar 8
First Quarter
Mar 16
Full
Mar 23
Last Quarter

Hourly Weather History & Observations

Time (PST) Temp. Dew Point Humidity Pressure Visibility Wind Dir Wind Speed Gust Speed Precip Events Conditions
12:53 AM 55.9 °F 51.1 °F 84% 29.99 in 4.0 mi NE 4.6 mph - N/A   Haze
1:53 AM 54.0 °F 48.0 °F 80% 29.97 in 5.0 mi Calm Calm - N/A   Haze
2:53 AM 54.0 °F 46.9 °F 77% 29.96 in 5.0 mi Calm Calm - N/A   Haze
3:53 AM 54.0 °F 46.9 °F 77% 29.94 in 5.0 mi WNW 3.5 mph - N/A   Haze
4:53 AM 53.1 °F 46.9 °F 80% 29.95 in 4.0 mi Calm Calm - N/A   Haze
5:53 AM 51.1 °F 45.0 °F 80% 29.97 in 4.0 mi Calm Calm - N/A   Haze
6:53 AM 50.0 °F 44.1 °F 80% 29.99 in 3.0 mi Calm Calm - N/A   Haze
7:53 AM 54.0 °F 46.9 °F 77% 30.00 in 3.0 mi Calm Calm - N/A   Haze
8:53 AM 57.0 °F 48.0 °F 72% 30.01 in 3.0 mi Calm Calm - N/A   Haze
9:11 AM 55.4 °F 48.2 °F 77% 30.03 in 4.0 mi Calm Calm - N/A   Haze
9:53 AM 60.1 °F 48.0 °F 64% 30.01 in 4.0 mi Calm Calm - N/A   Haze
10:53 AM 62.1 °F 46.9 °F 58% 29.99 in 5.0 mi Calm Calm - N/A   Haze
11:53 AM 69.1 °F 44.1 °F 40% 29.96 in 6.0 mi Calm Calm - N/A   Haze
12:53 PM 70.0 °F 44.1 °F 39% 29.94 in 8.0 mi South 11.5 mph - N/A   Clear
1:53 PM 68.0 °F 46.0 °F 45% 29.93 in 9.0 mi South 10.4 mph - N/A   Clear
2:53 PM 66.9 °F 46.9 °F 49% 29.92 in 10.0 mi South 10.4 mph - N/A   Clear
3:53 PM 64.9 °F 46.9 °F 52% 29.92 in 10.0 mi South 11.5 mph - N/A   Clear
4:53 PM 63.0 °F 48.0 °F 58% 29.94 in 10.0 mi South 9.2 mph - N/A   Clear
5:53 PM 57.9 °F 48.9 °F 72% 29.96 in 10.0 mi South 8.1 mph - N/A   Clear
6:53 PM 57.0 °F 50.0 °F 77% 29.99 in 10.0 mi South 4.6 mph - N/A   Mostly Cloudy
7:53 PM 57.0 °F 50.0 °F 77% 30.02 in 10.0 mi SSW 4.6 mph - N/A   Mostly Cloudy
8:53 PM 57.0 °F 48.9 °F 74% 30.02 in 10.0 mi SSW 5.8 mph - N/A   Overcast
9:53 PM 57.0 °F 50.0 °F 77% 30.01 in 10.0 mi Calm Calm - N/A   Overcast
10:53 PM 57.0 °F 50.0 °F 77% 30.01 in 10.0 mi SSE 4.6 mph - N/A   Overcast
11:53 PM 57.0 °F 48.9 °F 74% 30.02 in 10.0 mi SE 6.9 mph - N/A   Overcast